Year,Month,Day,Hour,Minute,Value (Times are PST for windspeed in km/hr)
2007,08,26,00,00,11.00
2007,08,26,00,01,12.00
2007,08,26,00,02,13.40
2007,08,26,00,03,11.50
2007,08,26,00,04,11.90
2007,08,26,00,05,14.30
2007,08,26,00,06,11.30
2007,08,26,00,07,11.40
2007,08,26,00,08,12.80
2007,08,26,00,09,7.00
2007,08,26,00,10,7.90
2007,08,26,00,11,10.50
2007,08,26,00,12,5.50
2007,08,26,00,13,14.70
2007,08,26,00,14,10.90
2007,08,26,00,15,11.30
2007,08,26,00,16,10.30
2007,08,26,00,17,4.80
2007,08,26,00,18,7.00
2007,08,26,00,19,11.70
2007,08,26,00,20,10.10
2007,08,26,00,21,13.00
2007,08,26,00,22,10.70
2007,08,26,00,23,6.80
2007,08,26,00,24,13.00
2007,08,26,00,25,6.00
2007,08,26,00,26,10.10
2007,08,26,00,27,12.10
2007,08,26,00,28,11.90
2007,08,26,00,29,13.20
2007,08,26,00,30,12.30
2007,08,26,00,31,11.30
2007,08,26,00,32,17.00
2007,08,26,00,33,12.80
2007,08,26,00,34,9.70
2007,08,26,00,35,8.70
2007,08,26,00,36,7.70
2007,08,26,00,37,14.50
2007,08,26,00,38,11.10
2007,08,26,00,39,15.50
2007,08,26,00,40,9.30
2007,08,26,00,41,15.50
2007,08,26,00,42,15.80
2007,08,26,00,43,16.80
2007,08,26,00,44,21.00
2007,08,26,00,45,17.00
2007,08,26,00,46,11.20
2007,08,26,00,47,14.20
2007,08,26,00,48,17.00
2007,08,26,00,49,10.50
2007,08,26,00,50,9.40
2007,08,26,00,51,17.90
2007,08,26,00,52,15.80
2007,08,26,00,53,16.70
2007,08,26,00,54,9.40
2007,08,26,00,55,6.80
2007,08,26,00,56,8.90
2007,08,26,00,57,12.00
2007,08,26,00,58,14.50
2007,08,26,00,59,17.90
2007,08,26,01,00,14.30
2007,08,26,01,01,8.60
2007,08,26,01,02,6.70
2007,08,26,01,03,17.30
2007,08,26,01,04,13.30
2007,08,26,01,05,14.60
2007,08,26,01,06,13.20
2007,08,26,01,07,16.80
2007,08,26,01,08,12.40
2007,08,26,01,09,13.40
2007,08,26,01,10,7.70
2007,08,26,01,11,11.70
2007,08,26,01,12,9.40
2007,08,26,01,13,14.60
2007,08,26,01,14,8.20
2007,08,26,01,15,11.90
2007,08,26,01,16,9.70
2007,08,26,01,17,13.40
2007,08,26,01,18,8.70
2007,08,26,01,19,12.30
2007,08,26,01,20,13.10
2007,08,26,01,21,14.30
2007,08,26,01,22,11.70
2007,08,26,01,23,7.20
2007,08,26,01,24,12.10
2007,08,26,01,25,11.20
2007,08,26,01,26,8.70
2007,08,26,01,27,14.90
2007,08,26,01,28,12.00
2007,08,26,01,29,12.10
2007,08,26,01,30,12.20
2007,08,26,01,31,17.10
2007,08,26,01,32,13.60
2007,08,26,01,33,14.60
2007,08,26,01,34,14.80
2007,08,26,01,35,11.70
2007,08,26,01,36,18.30
2007,08,26,01,37,17.20
2007,08,26,01,38,20.00
2007,08,26,01,39,16.10
2007,08,26,01,40,15.20
2007,08,26,01,41,11.80
2007,08,26,01,42,9.00
2007,08,26,01,43,16.00
2007,08,26,01,44,14.00
2007,08,26,01,45,13.40
2007,08,26,01,46,14.90
2007,08,26,01,47,12.80
2007,08,26,01,48,17.90
2007,08,26,01,49,10.40
2007,08,26,01,50,13.50
2007,08,26,01,51,18.10
2007,08,26,01,52,20.10
2007,08,26,01,53,8.20
2007,08,26,01,54,12.60
2007,08,26,01,55,11.20
2007,08,26,01,56,8.00
2007,08,26,01,57,7.70
2007,08,26,01,58,16.70
2007,08,26,01,59,12.50
2007,08,26,02,00,14.70
2007,08,26,02,01,16.10
2007,08,26,02,02,10.00
2007,08,26,02,03,9.70
2007,08,26,02,04,10.10
2007,08,26,02,05,13.30
2007,08,26,02,06,14.80
2007,08,26,02,07,11.50
2007,08,26,02,08,10.60
2007,08,26,02,09,10.80
2007,08,26,02,10,7.30
2007,08,26,02,11,13.60
2007,08,26,02,12,6.10
2007,08,26,02,13,8.50
2007,08,26,02,14,11.60
2007,08,26,02,15,9.10
2007,08,26,02,16,12.00
2007,08,26,02,17,10.80
2007,08,26,02,18,13.50
2007,08,26,02,19,11.30
2007,08,26,02,20,12.20
2007,08,26,02,21,8.90
2007,08,26,02,22,10.40
2007,08,26,02,23,12.60
2007,08,26,02,24,7.50
2007,08,26,02,25,9.90
2007,08,26,02,26,10.10
2007,08,26,02,27,11.80
2007,08,26,02,28,9.20
2007,08,26,02,29,7.90
2007,08,26,02,30,9.40
2007,08,26,02,31,9.70
2007,08,26,02,32,11.90
2007,08,26,02,33,11.00
2007,08,26,02,34,9.70
2007,08,26,02,35,6.40
2007,08,26,02,36,8.90
2007,08,26,02,37,7.60
2007,08,26,02,38,7.30
2007,08,26,02,39,9.70
2007,08,26,02,40,10.00
2007,08,26,02,41,10.00
2007,08,26,02,42,7.80
2007,08,26,02,43,14.40
2007,08,26,02,44,11.70
2007,08,26,02,45,9.50
2007,08,26,02,46,9.20
2007,08,26,02,47,12.20
2007,08,26,02,48,8.30
2007,08,26,02,49,6.70
2007,08,26,02,50,9.00
2007,08,26,02,51,9.70
2007,08,26,02,52,6.50
2007,08,26,02,53,8.30
2007,08,26,02,54,8.20
2007,08,26,02,55,7.30
2007,08,26,02,56,13.40
2007,08,26,02,57,10.10
2007,08,26,02,58,9.30
2007,08,26,02,59,6.20
2007,08,26,03,00,8.30
2007,08,26,03,01,12.20
2007,08,26,03,02,5.80
2007,08,26,03,03,7.30
2007,08,26,03,04,7.00
2007,08,26,03,05,8.30
2007,08,26,03,06,4.90
2007,08,26,03,07,5.70
2007,08,26,03,08,3.30
2007,08,26,03,09,7.60
2007,08,26,03,10,7.30
2007,08,26,03,11,7.00
2007,08,26,03,12,6.70
2007,08,26,03,13,7.80
2007,08,26,03,14,9.20
2007,08,26,03,15,7.50
2007,08,26,03,16,7.10
2007,08,26,03,17,9.00
2007,08,26,03,18,9.40
2007,08,26,03,19,13.30
2007,08,26,03,20,14.90
2007,08,26,03,21,8.70
2007,08,26,03,22,7.40
2007,08,26,03,23,9.30
2007,08,26,03,24,7.20
2007,08,26,03,25,10.00
2007,08,26,03,26,10.90
2007,08,26,03,27,12.20
2007,08,26,03,28,7.40
2007,08,26,03,29,8.30
2007,08,26,03,30,8.20
2007,08,26,03,31,9.30
2007,08,26,03,32,13.90
2007,08,26,03,33,18.10
2007,08,26,03,34,7.90
2007,08,26,03,35,8.70
2007,08,26,03,36,7.00
2007,08,26,03,37,8.40
2007,08,26,03,38,9.40
2007,08,26,03,39,12.10
2007,08,26,03,40,10.30
2007,08,26,03,41,9.90
2007,08,26,03,42,5.90
2007,08,26,03,43,11.00
2007,08,26,03,44,8.70
2007,08,26,03,45,9.30
2007,08,26,03,46,11.50
2007,08,26,03,47,12.20
2007,08,26,03,48,8.90
2007,08,26,03,49,8.80
2007,08,26,03,50,12.10
2007,08,26,03,51,14.00
2007,08,26,03,52,7.60
2007,08,26,03,53,8.80
2007,08,26,03,54,9.40
2007,08,26,03,55,7.20
2007,08,26,03,56,6.50
2007,08,26,03,57,8.20
2007,08,26,03,58,6.20
2007,08,26,03,59,6.40
2007,08,26,04,00,4.80
2007,08,26,04,01,6.00
2007,08,26,04,02,9.90
2007,08,26,04,03,6.20
2007,08,26,04,04,5.90
2007,08,26,04,05,8.10
2007,08,26,04,06,9.50
2007,08,26,04,07,9.60
2007,08,26,04,08,8.10
2007,08,26,04,09,14.80
2007,08,26,04,10,12.10
2007,08,26,04,11,9.70
2007,08,26,04,12,11.20
2007,08,26,04,13,9.60
2007,08,26,04,14,12.80
2007,08,26,04,15,10.20
2007,08,26,04,16,14.80
2007,08,26,04,17,11.20
2007,08,26,04,18,12.60
2007,08,26,04,19,11.20
2007,08,26,04,20,18.60
2007,08,26,04,21,10.90
2007,08,26,04,22,10.60
2007,08,26,04,23,14.90
2007,08,26,04,24,8.50
2007,08,26,04,25,8.60
2007,08,26,04,26,15.60
2007,08,26,04,27,11.00
2007,08,26,04,28,10.30
2007,08,26,04,29,11.30
2007,08,26,04,30,14.30
2007,08,26,04,31,8.10
2007,08,26,04,32,10.50
2007,08,26,04,33,11.30
2007,08,26,04,34,12.50
2007,08,26,04,35,13.30
2007,08,26,04,36,8.50
2007,08,26,04,37,12.70
2007,08,26,04,38,11.30
2007,08,26,04,39,11.10
2007,08,26,04,40,13.50
2007,08,26,04,41,18.20
2007,08,26,04,42,11.90
2007,08,26,04,43,12.00
2007,08,26,04,44,9.40
2007,08,26,04,45,12.00
2007,08,26,04,46,10.10
2007,08,26,04,47,8.50
2007,08,26,04,48,13.00
2007,08,26,04,49,7.90
2007,08,26,04,50,11.50
2007,08,26,04,51,10.10
2007,08,26,04,52,14.50
2007,08,26,04,53,10.50
2007,08,26,04,54,15.10
2007,08,26,04,55,15.30
2007,08,26,04,56,14.70
2007,08,26,04,57,13.90
2007,08,26,04,58,10.90
2007,08,26,04,59,13.10
2007,08,26,05,00,9.60
2007,08,26,05,01,9.20
2007,08,26,05,02,13.10
2007,08,26,05,03,13.70
2007,08,26,05,04,16.20
2007,08,26,05,05,9.20
2007,08,26,05,06,10.70
2007,08,26,05,07,11.50
2007,08,26,05,08,7.90
2007,08,26,05,09,4.90
2007,08,26,05,10,9.30
2007,08,26,05,11,9.40
2007,08,26,05,12,10.30
2007,08,26,05,13,13.40
2007,08,26,05,14,18.10
2007,08,26,05,15,9.90
2007,08,26,05,16,8.10
2007,08,26,05,17,8.60
2007,08,26,05,18,8.50
2007,08,26,05,19,12.70
2007,08,26,05,20,16.20
2007,08,26,05,21,10.20
2007,08,26,05,22,8.30
2007,08,26,05,23,11.90
2007,08,26,05,24,12.40
2007,08,26,05,25,7.90
2007,08,26,05,26,7.50
2007,08,26,05,27,6.60
2007,08,26,05,28,9.10
2007,08,26,05,29,8.80
2007,08,26,05,30,9.20
2007,08,26,05,31,12.20
2007,08,26,05,32,7.70
2007,08,26,05,33,8.20
2007,08,26,05,34,11.70
2007,08,26,05,35,7.10
2007,08,26,05,36,9.20
2007,08,26,05,37,9.90
2007,08,26,05,38,9.50
2007,08,26,05,39,13.90
2007,08,26,05,40,9.30
2007,08,26,05,41,13.50
2007,08,26,05,42,11.20
2007,08,26,05,43,12.30
2007,08,26,05,44,13.00
2007,08,26,05,45,12.00
2007,08,26,05,46,11.60
2007,08,26,05,47,12.20
2007,08,26,05,48,11.60
2007,08,26,05,49,13.70
2007,08,26,05,50,10.20
2007,08,26,05,51,13.40
2007,08,26,05,52,10.10
2007,08,26,05,53,11.80
2007,08,26,05,54,20.00
2007,08,26,05,55,5.80
2007,08,26,05,56,16.80
2007,08,26,05,57,13.70
2007,08,26,05,58,10.20
2007,08,26,05,59,7.10
2007,08,26,06,00,10.00
2007,08,26,06,01,11.90
2007,08,26,06,02,13.00
2007,08,26,06,03,20.50
2007,08,26,06,04,13.90
2007,08,26,06,05,18.40
2007,08,26,06,06,8.40
2007,08,26,06,07,9.90
2007,08,26,06,08,9.40
2007,08,26,06,09,8.30
2007,08,26,06,10,9.00
2007,08,26,06,11,12.30
2007,08,26,06,12,9.00
2007,08,26,06,13,13.30
2007,08,26,06,14,15.20
2007,08,26,06,15,12.60
2007,08,26,06,16,11.00
2007,08,26,06,17,16.60
2007,08,26,06,18,14.40
2007,08,26,06,19,13.60
2007,08,26,06,20,10.70
2007,08,26,06,21,13.10
2007,08,26,06,22,10.90
2007,08,26,06,23,11.70
2007,08,26,06,24,9.80
2007,08,26,06,25,11.60
2007,08,26,06,26,14.60
2007,08,26,06,27,15.10
2007,08,26,06,28,18.40
2007,08,26,06,29,9.50
2007,08,26,06,30,14.40
2007,08,26,06,31,8.60
2007,08,26,06,32,14.80
2007,08,26,06,33,13.80
2007,08,26,06,34,13.70
2007,08,26,06,35,14.70
2007,08,26,06,36,11.50
2007,08,26,06,37,11.70
2007,08,26,06,38,14.80
2007,08,26,06,39,10.30
2007,08,26,06,40,11.60
2007,08,26,06,41,13.50
2007,08,26,06,42,10.50
2007,08,26,06,43,15.20
2007,08,26,06,44,17.30
2007,08,26,06,45,16.80
2007,08,26,06,46,12.30
2007,08,26,06,47,11.50
2007,08,26,06,48,14.40
2007,08,26,06,49,12.00
2007,08,26,06,50,14.80
2007,08,26,06,51,14.50
2007,08,26,06,52,10.20
2007,08,26,06,53,11.30
2007,08,26,06,54,11.70
2007,08,26,06,55,7.40
2007,08,26,06,56,7.70
2007,08,26,06,57,10.50
2007,08,26,06,58,10.10
2007,08,26,06,59,10.30
2007,08,26,07,00,4.80
2007,08,26,07,01,9.90
2007,08,26,07,02,14.60
2007,08,26,07,03,11.60
2007,08,26,07,04,9.90
2007,08,26,07,05,13.10
2007,08,26,07,06,10.00
2007,08,26,07,07,14.10
2007,08,26,07,08,10.80
2007,08,26,07,09,7.90
2007,08,26,07,10,16.40
2007,08,26,07,11,7.20
2007,08,26,07,12,8.30
2007,08,26,07,13,7.00
2007,08,26,07,14,12.00
2007,08,26,07,15,8.70
2007,08,26,07,16,15.70
2007,08,26,07,17,12.10
2007,08,26,07,18,15.70
2007,08,26,07,19,19.80
2007,08,26,07,20,12.70
2007,08,26,07,21,13.30
2007,08,26,07,22,17.40
2007,08,26,07,23,14.80
2007,08,26,07,24,19.10
2007,08,26,07,25,16.70
2007,08,26,07,26,16.20
2007,08,26,07,27,12.20
2007,08,26,07,28,13.10
2007,08,26,07,29,15.00
2007,08,26,07,30,12.40
2007,08,26,07,31,21.30
2007,08,26,07,32,11.80
2007,08,26,07,33,15.90
2007,08,26,07,34,12.30
2007,08,26,07,35,17.70
2007,08,26,07,36,13.40
2007,08,26,07,37,12.30
2007,08,26,07,38,13.00
2007,08,26,07,39,13.70
2007,08,26,07,40,8.70
2007,08,26,07,41,14.20
2007,08,26,07,42,17.60
2007,08,26,07,43,8.30
2007,08,26,07,44,9.80
2007,08,26,07,45,14.70
2007,08,26,07,46,7.30
2007,08,26,07,47,10.30
2007,08,26,07,48,11.00
2007,08,26,07,49,10.90
2007,08,26,07,50,8.70
2007,08,26,07,51,14.90
2007,08,26,07,52,7.90
2007,08,26,07,53,7.60
2007,08,26,07,54,10.00
2007,08,26,07,55,14.80
2007,08,26,07,56,7.00
2007,08,26,07,57,9.10
2007,08,26,07,58,13.10
2007,08,26,07,59,13.80
2007,08,26,08,00,11.10
2007,08,26,08,01,14.20
2007,08,26,08,02,13.60
2007,08,26,08,03,14.70
2007,08,26,08,04,15.40
2007,08,26,08,05,12.50
2007,08,26,08,06,13.80
2007,08,26,08,07,7.60
2007,08,26,08,08,12.40
2007,08,26,08,09,20.30
2007,08,26,08,10,11.60
2007,08,26,08,11,7.30
2007,08,26,08,12,14.80
2007,08,26,08,13,19.40
2007,08,26,08,14,16.30
2007,08,26,08,15,13.80
2007,08,26,08,16,16.50
2007,08,26,08,17,15.60
2007,08,26,08,18,11.50
2007,08,26,08,19,13.70
2007,08,26,08,20,17.20
2007,08,26,08,21,14.60
2007,08,26,08,22,12.20
2007,08,26,08,23,18.40
2007,08,26,08,24,12.10
2007,08,26,08,25,11.20
2007,08,26,08,26,12.60
2007,08,26,08,27,7.90
2007,08,26,08,28,9.00
2007,08,26,08,29,16.00
2007,08,26,08,30,24.60
2007,08,26,08,31,15.90
2007,08,26,08,32,10.80
2007,08,26,08,33,15.00
2007,08,26,08,34,17.70
2007,08,26,08,35,22.10
2007,08,26,08,36,13.40
2007,08,26,08,37,18.30
2007,08,26,08,38,22.50
2007,08,26,08,39,14.60
2007,08,26,08,40,14.40
2007,08,26,08,41,11.20
2007,08,26,08,42,12.00
2007,08,26,08,43,17.20
2007,08,26,08,44,9.30
2007,08,26,08,45,20.70
2007,08,26,08,46,14.50
2007,08,26,08,47,18.10
2007,08,26,08,48,12.60
2007,08,26,08,49,16.80
2007,08,26,08,50,22.20
2007,08,26,08,51,19.20
2007,08,26,08,52,10.10
2007,08,26,08,53,10.80
2007,08,26,08,54,13.40
2007,08,26,08,55,12.10
2007,08,26,08,56,8.70
2007,08,26,08,57,17.30
2007,08,26,08,58,16.70
2007,08,26,08,59,13.60
2007,08,26,09,00,13.40
2007,08,26,09,01,12.90
2007,08,26,09,02,15.80
2007,08,26,09,03,11.20
2007,08,26,09,04,13.90
2007,08,26,09,05,16.40
2007,08,26,09,06,18.70
2007,08,26,09,07,16.00
2007,08,26,09,08,10.50
2007,08,26,09,09,13.60
2007,08,26,09,10,11.60
2007,08,26,09,11,8.70
2007,08,26,09,12,8.80
2007,08,26,09,13,13.20
2007,08,26,09,14,7.70
2007,08,26,09,15,14.50
2007,08,26,09,16,7.90
2007,08,26,09,17,11.50
2007,08,26,09,18,13.20
2007,08,26,09,19,12.20
2007,08,26,09,20,21.00
2007,08,26,09,21,17.20
2007,08,26,09,22,16.20
2007,08,26,09,23,12.40
2007,08,26,09,24,11.10
2007,08,26,09,25,11.90
2007,08,26,09,26,17.40
2007,08,26,09,27,10.20
2007,08,26,09,28,11.80
2007,08,26,09,29,13.40
2007,08,26,09,30,10.30
2007,08,26,09,31,20.20
2007,08,26,09,32,8.40
2007,08,26,09,33,10.50
2007,08,26,09,34,16.10
2007,08,26,09,35,11.30
2007,08,26,09,36,10.90
2007,08,26,09,37,16.20
2007,08,26,09,38,15.70
2007,08,26,09,39,13.60
2007,08,26,09,40,12.60
2007,08,26,09,41,9.90
2007,08,26,09,42,9.20
2007,08,26,09,43,15.00
2007,08,26,09,44,14.20
2007,08,26,09,45,16.30
2007,08,26,09,46,14.40
2007,08,26,09,47,19.40
2007,08,26,09,48,18.00
2007,08,26,09,49,21.70
2007,08,26,09,50,15.80
2007,08,26,09,51,13.90
2007,08,26,09,52,14.10
2007,08,26,09,53,11.60
2007,08,26,09,54,14.80
2007,08,26,09,55,11.20
2007,08,26,09,56,10.90
2007,08,26,09,57,13.70
2007,08,26,09,58,11.60
2007,08,26,09,59,13.80
2007,08,26,10,00,20.30
2007,08,26,10,01,12.90
2007,08,26,10,02,9.90
2007,08,26,10,03,11.80
2007,08,26,10,04,13.50
2007,08,26,10,05,12.60
2007,08,26,10,06,22.40
2007,08,26,10,07,11.30
2007,08,26,10,08,11.20
2007,08,26,10,09,16.30
2007,08,26,10,10,9.80
2007,08,26,10,11,15.00
2007,08,26,10,12,13.20
2007,08,26,10,13,17.30
2007,08,26,10,14,18.60
2007,08,26,10,15,16.40
2007,08,26,10,16,13.20
2007,08,26,10,17,12.80
2007,08,26,10,18,21.30
2007,08,26,10,19,14.90
2007,08,26,10,20,11.50
2007,08,26,10,21,15.90
2007,08,26,10,22,14.00
2007,08,26,10,23,18.00
2007,08,26,10,24,14.90
2007,08,26,10,25,19.80
2007,08,26,10,26,19.30
2007,08,26,10,27,17.50
2007,08,26,10,28,17.40
2007,08,26,10,29,15.70
2007,08,26,10,30,16.20
2007,08,26,10,31,15.00
2007,08,26,10,32,18.80
2007,08,26,10,33,20.40
2007,08,26,10,34,18.90
2007,08,26,10,35,13.80
2007,08,26,10,36,14.90
2007,08,26,10,37,11.80
2007,08,26,10,38,12.90
2007,08,26,10,39,15.00
2007,08,26,10,40,10.80
2007,08,26,10,41,14.50
2007,08,26,10,42,20.00
2007,08,26,10,43,13.70
2007,08,26,10,44,10.50
2007,08,26,10,45,18.40
2007,08,26,10,46,14.20
2007,08,26,10,47,12.10
2007,08,26,10,48,11.40
2007,08,26,10,49,15.20
2007,08,26,10,50,14.70
2007,08,26,10,51,14.10
2007,08,26,10,52,16.90
2007,08,26,10,53,13.80
2007,08,26,10,54,17.40
2007,08,26,10,55,14.30
2007,08,26,10,56,13.10
2007,08,26,10,57,16.80
2007,08,26,10,58,12.60
2007,08,26,10,59,17.90
2007,08,26,11,00,16.80
2007,08,26,11,01,19.30
2007,08,26,11,02,22.30
2007,08,26,11,03,26.50
2007,08,26,11,04,22.70
2007,08,26,11,05,22.00
2007,08,26,11,06,19.60
2007,08,26,11,07,20.70
2007,08,26,11,08,18.20
2007,08,26,11,09,12.90
2007,08,26,11,10,18.30
2007,08,26,11,11,16.20
2007,08,26,11,12,15.80
2007,08,26,11,13,20.00
2007,08,26,11,14,21.90
2007,08,26,11,15,22.30
2007,08,26,11,16,17.10
2007,08,26,11,17,24.40
2007,08,26,11,18,22.80
2007,08,26,11,19,18.90
2007,08,26,11,20,19.90
2007,08,26,11,21,15.70
2007,08,26,11,22,19.40
2007,08,26,11,23,17.80
2007,08,26,11,24,18.90
2007,08,26,11,25,18.20
2007,08,26,11,26,21.60
2007,08,26,11,27,17.70
2007,08,26,11,28,15.30
2007,08,26,11,29,16.90
2007,08,26,11,30,17.80
2007,08,26,11,31,11.60
2007,08,26,11,32,14.80
2007,08,26,11,33,19.50
2007,08,26,11,34,19.20
2007,08,26,11,35,21.00
2007,08,26,11,36,21.60
2007,08,26,11,37,22.40
2007,08,26,11,38,24.40
2007,08,26,11,39,20.70
2007,08,26,11,40,15.70
2007,08,26,11,41,19.90
2007,08,26,11,42,15.10
2007,08,26,11,43,14.40
2007,08,26,11,44,14.20
2007,08,26,11,45,22.30
2007,08,26,11,46,16.40
2007,08,26,11,47,26.50
2007,08,26,11,48,20.00
2007,08,26,11,49,23.20
2007,08,26,11,50,17.90
2007,08,26,11,51,14.40
2007,08,26,11,52,15.60
2007,08,26,11,53,19.20
2007,08,26,11,54,22.40
2007,08,26,11,55,16.10
2007,08,26,11,56,19.50
2007,08,26,11,57,20.70
2007,08,26,11,58,19.40
2007,08,26,11,59,10.70
2007,08,26,12,00,13.30
2007,08,26,12,01,12.80
2007,08,26,12,02,14.80
2007,08,26,12,03,15.50
2007,08,26,12,04,16.20
2007,08,26,12,05,10.90
2007,08,26,12,06,8.40
2007,08,26,12,07,16.60
2007,08,26,12,08,14.90
2007,08,26,12,09,12.20
2007,08,26,12,10,17.20
2007,08,26,12,11,18.20
2007,08,26,12,12,22.40
2007,08,26,12,13,19.40
2007,08,26,12,14,21.80
2007,08,26,12,15,13.80
2007,08,26,12,16,13.90
2007,08,26,12,17,16.80
2007,08,26,12,18,16.20
2007,08,26,12,19,19.00
2007,08,26,12,20,18.50
2007,08,26,12,21,18.40
2007,08,26,12,22,21.20
2007,08,26,12,23,16.90
2007,08,26,12,24,18.30
2007,08,26,12,25,25.20
2007,08,26,12,26,21.20
2007,08,26,12,27,18.30
2007,08,26,12,28,19.90
2007,08,26,12,29,20.00
2007,08,26,12,30,18.80
2007,08,26,12,31,20.70
2007,08,26,12,32,15.40
2007,08,26,12,33,21.80
2007,08,26,12,34,17.40
2007,08,26,12,35,21.90
2007,08,26,12,36,19.60
2007,08,26,12,37,23.20
2007,08,26,12,38,20.60
2007,08,26,12,39,18.90
2007,08,26,12,40,15.70
2007,08,26,12,41,23.60
2007,08,26,12,42,23.00
2007,08,26,12,43,21.10
2007,08,26,12,44,19.00
2007,08,26,12,45,22.90
2007,08,26,12,46,24.80
2007,08,26,12,47,19.20
2007,08,26,12,48,19.60
2007,08,26,12,49,19.00
2007,08,26,12,50,16.80
2007,08,26,12,51,20.80
2007,08,26,12,52,17.90
2007,08,26,12,53,11.20
2007,08,26,12,54,9.90
2007,08,26,12,55,11.50
2007,08,26,12,56,18.20
2007,08,26,12,57,20.00
2007,08,26,12,58,16.20
2007,08,26,12,59,15.80
2007,08,26,13,00,16.20
2007,08,26,13,01,13.30
2007,08,26,13,02,15.10
2007,08,26,13,03,14.90
2007,08,26,13,04,21.70
2007,08,26,13,05,21.70
2007,08,26,13,06,18.80
2007,08,26,13,07,13.70
2007,08,26,13,08,17.30
2007,08,26,13,09,15.70
2007,08,26,13,10,19.60
2007,08,26,13,11,11.50
2007,08,26,13,12,11.50
2007,08,26,13,13,17.20
2007,08,26,13,14,19.50
2007,08,26,13,15,17.70
2007,08,26,13,16,18.10
2007,08,26,13,17,16.80
2007,08,26,13,18,14.90
2007,08,26,13,19,17.80
2007,08,26,13,20,21.80
2007,08,26,13,21,21.90
2007,08,26,13,22,12.90
2007,08,26,13,23,18.30
2007,08,26,13,24,18.20
2007,08,26,13,25,18.70
2007,08,26,13,26,17.30
2007,08,26,13,27,12.90
2007,08,26,13,28,13.80
2007,08,26,13,29,9.10
2007,08,26,13,30,8.70
2007,08,26,13,31,14.70
2007,08,26,13,32,17.40
2007,08,26,13,33,18.50
2007,08,26,13,34,20.20
2007,08,26,13,35,18.20
2007,08,26,13,36,17.30
2007,08,26,13,37,23.00
2007,08,26,13,38,19.90
2007,08,26,13,39,20.00
2007,08,26,13,40,27.40
2007,08,26,13,41,17.90
2007,08,26,13,42,19.80
2007,08,26,13,43,22.60
2007,08,26,13,44,17.60
2007,08,26,13,45,24.80
2007,08,26,13,46,20.40
2007,08,26,13,47,24.20
2007,08,26,13,48,8.80
2007,08,26,13,49,13.90
2007,08,26,13,50,17.90
2007,08,26,13,51,16.20
2007,08,26,13,52,17.60
2007,08,26,13,53,18.80
2007,08,26,13,54,15.90
2007,08,26,13,55,19.00
2007,08,26,13,56,18.50
2007,08,26,13,57,23.90
2007,08,26,13,58,20.20
2007,08,26,13,59,14.20
2007,08,26,14,00,19.60
2007,08,26,14,01,25.40
2007,08,26,14,02,20.80
2007,08,26,14,03,28.40
2007,08,26,14,04,21.30
2007,08,26,14,05,18.50
2007,08,26,14,06,26.00
2007,08,26,14,07,24.60
2007,08,26,14,08,20.50
2007,08,26,14,09,15.10
2007,08,26,14,10,20.80
2007,08,26,14,11,21.60
2007,08,26,14,12,22.00
2007,08,26,14,13,22.40
2007,08,26,14,14,25.10
2007,08,26,14,15,19.60
2007,08,26,14,16,24.70
2007,08,26,14,17,20.70
2007,08,26,14,18,16.20
2007,08,26,14,19,20.90
2007,08,26,14,20,22.40
2007,08,26,14,21,17.00
2007,08,26,14,22,21.80
2007,08,26,14,23,17.30
2007,08,26,14,24,20.80
2007,08,26,14,25,17.80
2007,08,26,14,26,16.00
2007,08,26,14,27,18.00
2007,08,26,14,28,21.70
2007,08,26,14,29,21.30
2007,08,26,14,30,19.50
2007,08,26,14,31,19.70
2007,08,26,14,32,13.80
2007,08,26,14,33,15.70
2007,08,26,14,34,26.80
2007,08,26,14,35,19.10
2007,08,26,14,36,16.40
2007,08,26,14,37,20.90
2007,08,26,14,38,18.90
2007,08,26,14,39,21.00
2007,08,26,14,40,23.20
2007,08,26,14,41,18.60
2007,08,26,14,42,13.40
2007,08,26,14,43,19.50
2007,08,26,14,44,23.30
2007,08,26,14,45,27.80
2007,08,26,14,46,17.20
2007,08,26,14,47,15.80
2007,08,26,14,48,23.00
2007,08,26,14,49,14.00
2007,08,26,14,50,13.90
2007,08,26,14,51,15.80
2007,08,26,14,52,21.60
2007,08,26,14,53,27.10
2007,08,26,14,54,17.50
2007,08,26,14,55,19.90
2007,08,26,14,56,16.50
2007,08,26,14,57,15.00
2007,08,26,14,58,14.70
2007,08,26,14,59,14.90
2007,08,26,15,00,18.80
2007,08,26,15,01,18.30
2007,08,26,15,02,18.90
2007,08,26,15,03,18.30
2007,08,26,15,04,21.70
2007,08,26,15,05,19.30
2007,08,26,15,06,14.40
2007,08,26,15,07,26.80
2007,08,26,15,08,17.60
2007,08,26,15,09,24.60
2007,08,26,15,10,19.20
2007,08,26,15,11,23.30
2007,08,26,15,12,18.70
2007,08,26,15,13,21.00
2007,08,26,15,14,25.20
2007,08,26,15,15,16.70
2007,08,26,15,16,16.50
2007,08,26,15,17,22.40
2007,08,26,15,18,24.50
2007,08,26,15,19,26.80
2007,08,26,15,20,20.40
2007,08,26,15,21,23.10
2007,08,26,15,22,23.50
2007,08,26,15,23,16.10
2007,08,26,15,24,17.60
2007,08,26,15,25,18.70
2007,08,26,15,26,20.70
2007,08,26,15,27,22.20
2007,08,26,15,28,18.30
2007,08,26,15,29,20.40
2007,08,26,15,30,19.70
2007,08,26,15,31,18.10
2007,08,26,15,32,26.00
2007,08,26,15,33,11.70
2007,08,26,15,34,19.00
2007,08,26,15,35,10.70
2007,08,26,15,36,15.30
2007,08,26,15,37,20.50
2007,08,26,15,38,14.10
2007,08,26,15,39,16.70
2007,08,26,15,40,16.80
2007,08,26,15,41,15.90
2007,08,26,15,42,10.40
2007,08,26,15,43,23.20
2007,08,26,15,44,27.60
2007,08,26,15,45,23.40
2007,08,26,15,46,17.10
2007,08,26,15,47,16.70
2007,08,26,15,48,21.60
2007,08,26,15,49,21.70
2007,08,26,15,50,18.90
2007,08,26,15,51,22.10
2007,08,26,15,52,16.80
2007,08,26,15,53,16.90
2007,08,26,15,54,20.80
2007,08,26,15,55,20.00
2007,08,26,15,56,18.80
2007,08,26,15,57,16.70
2007,08,26,15,58,17.20
2007,08,26,15,59,19.20
2007,08,26,16,00,18.70
2007,08,26,16,01,25.40
2007,08,26,16,02,21.50
2007,08,26,16,03,17.10
2007,08,26,16,04,23.80
2007,08,26,16,05,19.30
2007,08,26,16,06,20.90
2007,08,26,16,07,18.20
2007,08,26,16,08,20.80
2007,08,26,16,09,22.30
2007,08,26,16,10,24.10
2007,08,26,16,11,11.10
2007,08,26,16,12,26.40
2007,08,26,16,13,24.80
2007,08,26,16,14,23.00
2007,08,26,16,15,20.20
2007,08,26,16,16,23.00
2007,08,26,16,17,21.80
2007,08,26,16,18,13.90
2007,08,26,16,19,20.80
2007,08,26,16,20,13.00
2007,08,26,16,21,18.50
2007,08,26,16,22,21.70
2007,08,26,16,23,9.50
2007,08,26,16,24,21.50
2007,08,26,16,25,21.70
2007,08,26,16,26,21.00
2007,08,26,16,27,15.60
2007,08,26,16,28,17.90
2007,08,26,16,29,18.90
2007,08,26,16,30,18.70
2007,08,26,16,31,19.10
2007,08,26,16,32,25.00
2007,08,26,16,33,16.00
2007,08,26,16,34,22.50
2007,08,26,16,35,17.00
2007,08,26,16,36,19.70
2007,08,26,16,37,18.00
2007,08,26,16,38,22.00
2007,08,26,16,39,27.50
2007,08,26,16,40,26.10
2007,08,26,16,41,22.40
2007,08,26,16,42,19.70
2007,08,26,16,43,16.40
2007,08,26,16,44,18.10
2007,08,26,16,45,19.10
2007,08,26,16,46,20.10
2007,08,26,16,47,17.80
2007,08,26,16,48,13.90
2007,08,26,16,49,22.20
2007,08,26,16,50,11.90
2007,08,26,16,51,15.80
2007,08,26,16,52,22.70
2007,08,26,16,53,19.00
2007,08,26,16,54,11.50
2007,08,26,16,55,14.80
2007,08,26,16,56,7.90
2007,08,26,16,57,21.20
2007,08,26,16,58,16.40
2007,08,26,16,59,13.50
2007,08,26,17,00,16.20
2007,08,26,17,01,21.10
2007,08,26,17,02,10.30
2007,08,26,17,03,19.70
2007,08,26,17,04,14.90
2007,08,26,17,05,27.20
2007,08,26,17,06,20.20
2007,08,26,17,07,19.30
2007,08,26,17,08,28.00
2007,08,26,17,09,25.20
2007,08,26,17,10,20.00
2007,08,26,17,11,23.70
2007,08,26,17,12,15.60
2007,08,26,17,13,18.80
2007,08,26,17,14,19.10
2007,08,26,17,15,14.90
2007,08,26,17,16,16.90
2007,08,26,17,17,20.90
2007,08,26,17,18,22.80
2007,08,26,17,19,20.70
2007,08,26,17,20,16.70
2007,08,26,17,21,17.10
2007,08,26,17,22,16.70
2007,08,26,17,23,21.70
2007,08,26,17,24,25.80
2007,08,26,17,25,21.50
2007,08,26,17,26,16.60
2007,08,26,17,27,21.70
2007,08,26,17,28,13.30